EN

Hourly Weather Bartlewo

Today, 18 January, Monday

Time Temperature Precipitation Wind Pressure Humidity
00:00 -14°C° 0 mm 2 mps 749 mmHg 84%
01:00 -14°C° 0 mm 2 mps 749 mmHg 84%
02:00 -14°C° 0 mm 2 mps 749 mmHg 84%
03:00 -14°C° 0 mm 2 mps 749 mmHg 84%
04:00 -14°C° 0 mm 2 mps 749 mmHg 84%
05:00 -14°C° 0 mm 2 mps 748 mmHg 84%
06:00 -14°C° 0 mm 2 mps 748 mmHg 84%
07:00 -14°C° 0 mm 2 mps 748 mmHg 84%
08:00 -13°C° 0 mm 2 mps 748 mmHg 82%
09:00 -14°C° 0 mm 3 mps 748 mmHg 80%
10:00 -13°C° 0 mm 3 mps 748 mmHg 78%
11:00 -12°C° 0 mm 3 mps 748 mmHg 78%
12:00 -10°C° 0 mm 3 mps 748 mmHg 78%
13:00 -9°C° 0 mm 3 mps 747 mmHg 78%
14:00 -9°C° 0 mm 3 mps 747 mmHg 81%
15:00 -10°C° 0 mm 3 mps 747 mmHg 84%
16:00 -10°C° 0 mm 3 mps 746 mmHg 87%
17:00 -11°C° 0.1 mm 4 mps 746 mmHg 89%
18:00 -10°C° 0.1 mm 4 mps 745 mmHg 91%
19:00 -10°C° 0.1 mm 4 mps 745 mmHg 93%
20:00 -10°C° 0.2 mm 4 mps 744 mmHg 93%
21:00 -9°C° 0.2 mm 4 mps 744 mmHg 94%
22:00 -8°C° 0.2 mm 5 mps 743 mmHg 94%
23:00 -7°C° 0.3 mm 4 mps 743 mmHg 95%

Tomorrow, 19 January, Tuesday

Time Temperature Precipitation Wind Pressure Humidity
00:00 -4°C° 0.3 mm 4 mps 743 mmHg 96%
01:00 -3°C° 0.3 mm 4 mps 742 mmHg 96%
02:00 -3°C° 0.4 mm 4 mps 742 mmHg 97%
03:00 -1°C° 0.4 mm 3 mps 741 mmHg 97%
04:00 0°C° 0.4 mm 3 mps 741 mmHg 98%
05:00 0°C° 0.2 mm 3 mps 740 mmHg 98%
06:00 -1°C° 0.2 mm 4 mps 740 mmHg 97%
07:00 -1°C° 0.2 mm 4 mps 740 mmHg 97%
08:00 -1°C° 0.1 mm 4 mps 740 mmHg 98%
09:00 -1°C° 0.1 mm 4 mps 740 mmHg 98%
10:00 -1°C° 0.1 mm 4 mps 739 mmHg 98%
11:00 -1°C° 0 mm 4 mps 739 mmHg 98%
12:00 -1°C° 0 mm 4 mps 739 mmHg 98%
13:00 -1°C° 0 mm 4 mps 738 mmHg 98%
14:00 -1°C° 0.3 mm 4 mps 738 mmHg 98%
15:00 -1°C° 0.3 mm 4 mps 737 mmHg 97%
16:00 -2°C° 0.3 mm 4 mps 737 mmHg 97%
17:00 -2°C° 0.2 mm 4 mps 736 mmHg 97%
18:00 -2°C° 0.2 mm 4 mps 736 mmHg 97%
19:00 -2°C° 0.2 mm 4 mps 735 mmHg 97%
20:00 -1°C° 0.3 mm 4 mps 735 mmHg 97%
21:00 -1°C° 0.3 mm 4 mps 734 mmHg 97%
22:00 -1°C° 0.3 mm 4 mps 734 mmHg 97%
23:00 -1°C° 0.3 mm 4 mps 734 mmHg 97%

Day after tomorrow, 20 January, Wednesday

Time Temperature Precipitation Wind Pressure Humidity
00:00 -1°C° 0.3 mm 4 mps 733 mmHg 97%
01:00 0°C° 0.3 mm 4 mps 733 mmHg 97%
02:00 0°C° 0.6 mm 4 mps 733 mmHg 97%
03:00 +1°C° 0.6 mm 4 mps 733 mmHg 97%
04:00 +2°C° 0.6 mm 5 mps 733 mmHg 97%
05:00 +2°C° 0.6 mm 5 mps 732 mmHg 96%
06:00 +2°C° 0.6 mm 6 mps 732 mmHg 95%
07:00 +2°C° 0.6 mm 6 mps 732 mmHg 95%
08:00 +2°C° 0.1 mm 6 mps 732 mmHg 94%
09:00 +1°C° 0.1 mm 6 mps 732 mmHg 94%
10:00 +1°C° 0.1 mm 6 mps 733 mmHg 93%
11:00 +1°C° 0.8 mm 6 mps 733 mmHg 93%
12:00 +1°C° 0.8 mm 6 mps 733 mmHg 93%
13:00 -1°C° 0.8 mm 6 mps 733 mmHg 93%
14:00 -1°C° 1 mm 6 mps 733 mmHg 93%
15:00 +1°C° 1 mm 6 mps 733 mmHg 93%
16:00 +1°C° 1 mm 6 mps 733 mmHg 92%
17:00 +1°C° 0.1 mm 5 mps 733 mmHg 92%
18:00 +1°C° 0.1 mm 5 mps 733 mmHg 91%
19:00 +1°C° 0.1 mm 5 mps 734 mmHg 91%
20:00 +1°C° 0 mm 5 mps 734 mmHg 90%
21:00 +1°C° 0 mm 5 mps 734 mmHg 88%
22:00 +1°C° 0 mm 5 mps 734 mmHg 87%
23:00 +1°C° 0.1 mm 5 mps 734 mmHg 87%

21 January, Thursday

Time Temperature Precipitation Wind Pressure Humidity
00:00 0°C° 0.1 mm 5 mps 734 mmHg 87%
01:00 0°C° 0.1 mm 5 mps 734 mmHg 87%
02:00 0°C° 0 mm 5 mps 733 mmHg 87%
03:00 0°C° 0 mm 5 mps 733 mmHg 88%
04:00 0°C° 0 mm 4 mps 733 mmHg 88%
05:00 0°C° 0 mm 5 mps 733 mmHg 87%
06:00 0°C° 0 mm 5 mps 733 mmHg 86%
07:00 0°C° 0 mm 5 mps 733 mmHg 85%
08:00 0°C° 0 mm 5 mps 733 mmHg 82%
09:00 +1°C° 0 mm 5 mps 733 mmHg 79%
10:00 +1°C° 0 mm 5 mps 733 mmHg 76%
11:00 +2°C° 0 mm 6 mps 733 mmHg 73%
12:00 +2°C° 0 mm 6 mps 733 mmHg 69%
13:00 +3°C° 0 mm 7 mps 733 mmHg 66%
14:00 +2°C° 0 mm 6 mps 733 mmHg 68%
15:00 +2°C° 0 mm 6 mps 732 mmHg 70%
16:00 +1°C° 0 mm 6 mps 732 mmHg 73%
17:00 +1°C° 0 mm 6 mps 732 mmHg 76%
18:00 0°C° 0 mm 5 mps 732 mmHg 80%
19:00 0°C° 0 mm 5 mps 732 mmHg 84%
20:00 0°C° 0 mm 5 mps 732 mmHg 84%
21:00 0°C° 0 mm 5 mps 732 mmHg 85%
22:00 0°C° 0 mm 5 mps 731 mmHg 85%
23:00 0°C° 0 mm 4 mps 731 mmHg 87%

22 January, Friday

Time Temperature Precipitation Wind Pressure Humidity
00:00 0°C° 0 mm 4 mps 731 mmHg 88%
01:00 0°C° 0 mm 4 mps 731 mmHg 89%
02:00 0°C° 0 mm 4 mps 731 mmHg 90%
03:00 0°C° 0 mm 4 mps 730 mmHg 91%
04:00 -1°C° 0 mm 4 mps 730 mmHg 92%
05:00 -1°C° 0 mm 4 mps 730 mmHg 92%
06:00 -1°C° 0 mm 5 mps 730 mmHg 92%
07:00 -1°C° 0 mm 5 mps 730 mmHg 92%
08:00 0°C° 0 mm 5 mps 729 mmHg 89%
09:00 +1°C° 0 mm 6 mps 729 mmHg 87%
10:00 +2°C° 0 mm 6 mps 729 mmHg 84%
11:00 +3°C° 0 mm 6 mps 729 mmHg 82%
12:00 +3°C° 0 mm 5 mps 729 mmHg 79%
13:00 +3°C° 0 mm 5 mps 729 mmHg 76%
14:00 +3°C° 0 mm 4 mps 729 mmHg 80%
15:00 +2°C° 0 mm 3 mps 729 mmHg 84%
16:00 +1°C° 0 mm 3 mps 728 mmHg 88%
17:00 +1°C° 0 mm 3 mps 729 mmHg 89%
18:00 0°C° 0 mm 3 mps 729 mmHg 91%
19:00 0°C° 0 mm 3 mps 729 mmHg 93%
20:00 +1°C° 0 mm 2 mps 729 mmHg 93%
21:00 +1°C° 0 mm 2 mps 729 mmHg 93%
22:00 +1°C° 0 mm 2 mps 730 mmHg 93%
23:00 +1°C° 0 mm 2 mps 730 mmHg 93%

23 January, Saturday

Time Temperature Precipitation Wind Pressure Humidity
00:00 +1°C° 0 mm 2 mps 730 mmHg 93%
01:00 +1°C° 0 mm 2 mps 730 mmHg 92%
02:00 +1°C° 0 mm 2 mps 730 mmHg 92%
03:00 +1°C° 0 mm 2 mps 731 mmHg 91%
04:00 -1°C° 0 mm 2 mps 731 mmHg 90%
05:00 -1°C° 0 mm 2 mps 731 mmHg 90%
06:00 -1°C° 0 mm 2 mps 731 mmHg 90%
07:00 -1°C° 0 mm 2 mps 731 mmHg 90%
08:00 -1°C° 0 mm 2 mps 732 mmHg 88%
09:00 +1°C° 0 mm 2 mps 732 mmHg 87%
10:00 +1°C° 0 mm 2 mps 732 mmHg 85%
11:00 +1°C° 0 mm 3 mps 733 mmHg 83%
12:00 +2°C° 0 mm 3 mps 733 mmHg 81%
13:00 +2°C° 0 mm 3 mps 733 mmHg 78%
14:00 +3°C° 0 mm 2 mps 733 mmHg 82%
15:00 +2°C° 0 mm 2 mps 734 mmHg 86%
16:00 +1°C° 0 mm 2 mps 734 mmHg 90%
17:00 +1°C° 0 mm 2 mps 734 mmHg 91%
18:00 -1°C° 0 mm 2 mps 734 mmHg 91%
19:00 -1°C° 0 mm 2 mps 734 mmHg 92%
20:00 -1°C° 0 mm 2 mps 735 mmHg 93%
21:00 -2°C° 0 mm 2 mps 735 mmHg 93%
22:00 -2°C° 0 mm 2 mps 735 mmHg 93%
23:00 -2°C° 0 mm 2 mps 735 mmHg 94%
Show more

We Need Your Consent

Meteoprog and our Service Providers may store and access personal data such as cookies, device identifiers or other similar technologies on your device and process such data to personalise content and ads, as well as provide social media features and to analyse the traffic.

  • Store and/or access information on your device

    Cookies, device identifiers or other information can be stored or accessed on your device for the purposes indicated above.

  • Personalised ads and content, ad and content measurement, audience insights, and products development

    Ads and content can be personalised based on a profile. More data can be added to better personalise ads and content. Ad and content performance can be measured. Insights about the audience who saw the ads and content can be derived. Such data can be used to develop or improve user’s experience, systems and software.

By clicking ‘I Agree’ you will allow the use of indicated cookies, device identifiers, web beacons or other similar technologies. Your settings can be changed in the browser on your device.

For certain purposes, legitimate interests may be relied on, rather than consent. You can read more about this in our Privacy and Cookie Policy.